| time (UTC) | temp F | wind direction | speed MPH | gust MPH | rain 1hr in | rain 24hr in | rain mn in | humidity % | barometer mb |
| 20260831140002 | 74 | 13 | 0.0 | 6.0 | 0.00 | 0.00 | 0.00 | 98 | 1008.7 |
| 20260831135600 | 74 | 259 | 0.0 | 6.0 | 0.00 | 0.00 | 0.00 | 98 | 1008.7 |
| 20260831135100 | 73 | 346 | 0.0 | 3.0 | 0.00 | 0.00 | 0.00 | 100 | 1008.6 |
| 20260831134559 | 73 | 301 | 0.0 | 5.0 | 0.00 | 0.00 | 0.00 | 100 | 1008.6 |
| 20260831134057 | 72 | 289 | 1.0 | 5.0 | 0.00 | 0.00 | 0.00 | 100 | 1008.5 |
| 20260831133556 | 72 | 323 | 1.0 | 3.0 | 0.00 | 0.00 | 0.00 | 100 | 1008.5 |
| 20260831133055 | 72 | 278 | 0.0 | 1.0 | 0.00 | 0.00 | 0.00 | 100 | 1008.4 |
| 20260831132554 | 71 | 311 | 0.0 | 1.0 | 0.00 | 0.00 | 0.00 | 100 | 1008.3 |
| 20260831132053 | 71 | 312 | 0.0 | 0.0 | 0.00 | 0.00 | 0.00 | 100 | 1008.1 |
| 20260831131556 | 70 | 292 | 0.0 | 1.0 | 0.00 | 0.00 | 0.00 | 100 | 1008.1 |
| 20260831131052 | 70 | 293 | 0.0 | 1.0 | 0.00 | 0.00 | 0.00 | 100 | 1008.1 |
| 20260831130552 | 70 | 290 | 0.0 | 1.0 | 0.00 | 0.00 | 0.00 | 100 | 1008.1 |
| 20260831130105 | 69 | 303 | 0.0 | 1.0 | 0.00 | 0.00 | 0.00 | 100 | 1008.0 |
| 20260831125552 | 69 | 298 | 0.0 | 1.0 | 0.00 | 0.00 | 0.00 | 100 | 1008.1 |
| 20260831125052 | 69 | 284 | 0.0 | 1.0 | 0.00 | 0.00 | 0.00 | 100 | 1008.1 |
| 20260831124551 | 68 | 240 | 0.0 | 1.0 | 0.00 | 0.00 | 0.00 | 100 | 1007.9 |
| 20260831124049 | 68 | 250 | 0.0 | 1.0 | 0.00 | 0.00 | 0.00 | 100 | 1007.9 |
| 20260831123549 | 68 | 284 | 0.0 | 2.0 | 0.00 | 0.00 | 0.00 | 100 | 1007.7 |
| 20260831123048 | 68 | 289 | 0.0 | 2.0 | 0.00 | 0.00 | 0.00 | 100 | 1007.6 |
| 20260831122547 | 67 | 294 | 0.0 | 2.0 | 0.00 | 0.00 | 0.00 | 100 | 1007.5 |
| 20260831122048 | 67 | 297 | 0.0 | 1.0 | 0.00 | 0.00 | 0.00 | 100 | 1007.5 |
| 20260831121545 | 67 | 243 | 0.0 | 1.0 | 0.00 | 0.00 | 0.00 | 100 | 1007.3 |
| 20260831121045 | 67 | 243 | 0.0 | 1.0 | 0.00 | 0.00 | 0.00 | 100 | 1007.3 |
| 20260831120544 | 67 | 248 | 0.0 | 0.0 | 0.00 | 0.00 | 0.00 | 100 | 1007.1 |
| 20260831120043 | 67 | 288 | 0.0 | 1.0 | 0.00 | 0.00 | 0.00 | 100 | 1006.9 |
| 20260831115542 | 68 | 288 | 0.0 | 1.0 | 0.00 | 0.00 | 0.00 | 100 | 1006.8 |
| 20260831115041 | 67 | 295 | 0.0 | 0.0 | 0.00 | 0.00 | 0.00 | 100 | 1006.7 |
| 20260831114541 | 68 | 295 | 0.0 | 0.0 | 0.00 | 0.00 | 0.00 | 100 | 1006.6 |
| 20260831114040 | 67 | 245 | 0.0 | 0.0 | 0.00 | 0.00 | 0.00 | 100 | 1006.4 |
| 20260831113540 | 68 | 245 | 0.0 | 0.0 | 0.00 | 0.00 | 0.00 | 100 | 1006.3 |
| 20260831113040 | 68 | 244 | 0.0 | 0.0 | 0.00 | 0.00 | 0.00 | 100 | 1006.4 |
| 20260831112539 | 68 | 245 | 0.0 | 1.0 | 0.00 | 0.00 | 0.00 | 100 | 1006.4 |
| 20260831112039 | 68 | 243 | 0.0 | 1.0 | 0.00 | 0.00 | 0.00 | 100 | 1006.4 |
| 20260831111537 | 68 | 293 | 0.0 | 0.0 | 0.00 | 0.00 | 0.00 | 100 | 1006.4 |
| 20260831111037 | 68 | 293 | 0.0 | 1.0 | 0.00 | 0.00 | 0.00 | 100 | 1006.4 |
| 20260831110537 | 68 | 276 | 0.0 | 1.0 | 0.00 | 0.00 | 0.00 | 100 | 1006.5 |
| 20260831110040 | 68 | 280 | 0.0 | 2.0 | 0.00 | 0.00 | 0.00 | 100 | 1006.5 |
| 20260831105539 | 68 | 290 | 0.0 | 1.0 | 0.00 | 0.00 | 0.00 | 100 | 1006.6 |
| 20260831105047 | 68 | 274 | 0.0 | 2.0 | 0.00 | 0.00 | 0.00 | 100 | 1006.5 |
| 20260831104539 | 68 | 260 | 0.0 | 2.0 | 0.00 | 0.00 | 0.00 | 100 | 1006.4 |
| 20260831104035 | 68 | 280 | 0.0 | 2.0 | 0.00 | 0.00 | 0.00 | 100 | 1006.4 |
| 20260831103534 | 68 | 278 | 0.0 | 2.0 | 0.00 | 0.00 | 0.00 | 100 | 1006.4 |
| 20260831103035 | 68 | 273 | 0.0 | 1.0 | 0.00 | 0.00 | 0.00 | 100 | 1006.4 |
| 20260831102533 | 68 | 243 | 0.0 | 2.0 | 0.00 | 0.00 | 0.00 | 100 | 1006.4 |
| 20260831102033 | 69 | 301 | 0.0 | 2.0 | 0.00 | 0.00 | 0.00 | 100 | 1006.4 |
| 20260831101538 | 69 | 246 | 0.0 | 2.0 | 0.00 | 0.00 | 0.00 | 100 | 1006.2 |
| 20260831101034 | 69 | 290 | 0.0 | 3.0 | 0.00 | 0.00 | 0.00 | 100 | 1006.3 |
| 20260831100531 | 69 | 277 | 0.0 | 3.0 | 0.00 | 0.00 | 0.00 | 100 | 1006.3 |
| 20260831100031 | 69 | 278 | 0.0 | 3.0 | 0.00 | 0.00 | 0.00 | 100 | 1006.1 |
| 20260831095631 | 69 | 280 | 0.0 | 3.0 | 0.00 | 0.00 | 0.00 | 100 | 1006.1 |
| 20260831095029 | 69 | 269 | 0.0 | 2.0 | 0.00 | 0.00 | 0.00 | 100 | 1006.1 |
| 20260831094528 | 69 | 264 | 0.0 | 3.0 | 0.00 | 0.00 | 0.00 | 100 | 1006.0 |
| 20260831094029 | 69 | 269 | 0.0 | 3.0 | 0.00 | 0.00 | 0.00 | 100 | 1005.9 |
| 20260831093529 | 69 | 252 | 0.0 | 3.0 | 0.00 | 0.00 | 0.00 | 100 | 1005.8 |
| 20260831093028 | 69 | 250 | 0.0 | 3.0 | 0.00 | 0.00 | 0.00 | 100 | 1005.9 |
| 20260831092528 | 69 | 284 | 0.0 | 2.0 | 0.00 | 0.00 | 0.00 | 100 | 1005.9 |
| 20260831092026 | 69 | 249 | 0.0 | 2.0 | 0.00 | 0.00 | 0.00 | 100 | 1005.8 |
| 20260831091526 | 69 | 243 | 0.0 | 2.0 | 0.00 | 0.00 | 0.00 | 100 | 1005.8 |
| 20260831091025 | 69 | 284 | 0.0 | 3.0 | 0.00 | 0.00 | 0.00 | 100 | 1005.9 |
| 20260831090526 | 70 | 260 | 0.0 | 3.0 | 0.00 | 0.00 | 0.00 | 100 | 1005.9 |
| 20260831090031 | 70 | 306 | 0.0 | 3.0 | 0.00 | 0.00 | 0.00 | 99 | 1005.8 |
| 20260831085525 | 70 | 264 | 0.0 | 3.0 | 0.00 | 0.00 | 0.00 | 99 | 1005.9 |
| 20260831085023 | 70 | 273 | 0.0 | 2.0 | 0.00 | 0.00 | 0.00 | 99 | 1005.9 |
| 20260831084523 | 70 | 277 | 0.0 | 2.0 | 0.00 | 0.00 | 0.00 | 99 | 1006.1 |
| 20260831084022 | 70 | 261 | 0.0 | 2.0 | 0.00 | 0.00 | 0.00 | 99 | 1006.0 |
| 20260831083522 | 70 | 290 | 0.0 | 2.0 | 0.00 | 0.00 | 0.00 | 99 | 1005.9 |
| 20260831083035 | 70 | 273 | 0.0 | 3.0 | 0.00 | 0.00 | 0.00 | 99 | 1005.8 |
| 20260831082524 | 70 | 271 | 0.0 | 3.0 | 0.00 | 0.00 | 0.00 | 99 | 1005.8 |
| 20260831082024 | 70 | 273 | 0.0 | 2.0 | 0.00 | 0.00 | 0.00 | 99 | 1005.7 |
| 20260831081521 | 70 | 298 | 0.0 | 2.0 | 0.00 | 0.00 | 0.00 | 99 | 1005.6 |
| 20260831081024 | 70 | 294 | 1.0 | 4.0 | 0.00 | 0.00 | 0.00 | 99 | 1005.6 |
| 20260831080520 | 70 | 253 | 1.0 | 5.0 | 0.00 | 0.00 | 0.00 | 99 | 1005.5 |
| 20260831080019 | 70 | 272 | 0.0 | 5.0 | 0.00 | 0.00 | 0.00 | 98 | 1005.4 |
| 20260831075519 | 70 | 243 | 1.0 | 4.0 | 0.00 | 0.00 | 0.00 | 98 | 1005.6 |
| 20260831075018 | 70 | 271 | 1.0 | 3.0 | 0.00 | 0.00 | 0.00 | 98 | 1005.6 |
| 20260831074518 | 71 | 240 | 0.0 | 4.0 | 0.00 | 0.00 | 0.00 | 98 | 1005.7 |
| 20260831074018 | 71 | 278 | 1.0 | 3.0 | 0.00 | 0.00 | 0.00 | 98 | 1005.8 |
| 20260831073517 | 71 | 290 | 1.0 | 5.0 | 0.00 | 0.00 | 0.00 | 98 | 1005.7 |
| 20260831073017 | 71 | 257 | 2.0 | 7.0 | 0.00 | 0.00 | 0.00 | 98 | 1005.7 |
| 20260831072517 | 71 | 253 | 3.0 | 7.0 | 0.00 | 0.00 | 0.00 | 98 | 1005.6 |
| 20260831072015 | 71 | 259 | 2.0 | 5.0 | 0.00 | 0.00 | 0.00 | 98 | 1005.6 |
| 20260831071515 | 71 | 247 | 1.0 | 4.0 | 0.00 | 0.00 | 0.00 | 98 | 1005.7 |
| 20260831071014 | 71 | 238 | 2.0 | 5.0 | 0.00 | 0.00 | 0.00 | 98 | 1005.7 |
| 20260831070516 | 71 | 236 | 2.0 | 5.0 | 0.00 | 0.00 | 0.00 | 97 | 1005.6 |
| 20260831070023 | 71 | 234 | 0.0 | 5.0 | 0.00 | 0.00 | 0.00 | 97 | 1005.6 |
| 20260831065513 | 71 | 311 | 2.0 | 5.0 | 0.00 | 0.00 | 0.00 | 97 | 1005.7 |
| 20260831065012 | 71 | 255 | 1.0 | 5.0 | 0.00 | 0.00 | 0.00 | 97 | 1005.7 |
| 20260831064511 | 71 | 236 | 2.0 | 5.0 | 0.00 | 0.00 | 0.00 | 97 | 1005.9 |
| 20260831064010 | 71 | 231 | 0.0 | 5.0 | 0.00 | 0.00 | 0.00 | 97 | 1005.9 |
| 20260831063510 | 71 | 200 | 1.0 | 7.0 | 0.00 | 0.00 | 0.00 | 96 | 1005.9 |
| 20260831063010 | 71 | 292 | 2.0 | 7.0 | 0.00 | 0.00 | 0.00 | 96 | 1005.7 |
| 20260831062512 | 71 | 259 | 1.0 | 12.0 | 0.00 | 0.00 | 0.00 | 96 | 1005.8 |
| 20260831062011 | 72 | 280 | 3.0 | 12.0 | 0.00 | 0.00 | 0.00 | 96 | 1005.9 |
| 20260831061508 | 72 | 189 | 1.0 | 8.0 | 0.00 | 0.00 | 0.00 | 96 | 1005.9 |
| 20260831061008 | 72 | 209 | 2.0 | 9.0 | 0.00 | 0.00 | 0.00 | 95 | 1006.0 |
| 20260831060506 | 72 | 246 | 3.0 | 9.0 | 0.00 | 0.00 | 0.00 | 95 | 1006.1 |
| 20260831060006 | 72 | 253 | 2.0 | 8.0 | 0.00 | 0.00 | 0.00 | 95 | 1006.1 |
| 20260831055506 | 72 | 262 | 3.0 | 7.0 | 0.00 | 0.00 | 0.00 | 95 | 1006.1 |
| 20260831055005 | 72 | 166 | 1.0 | 7.0 | 0.00 | 0.00 | 0.00 | 95 | 1006.1 |
| 20260831054505 | 72 | 166 | 2.0 | 7.0 | 0.00 | 0.00 | 0.00 | 94 | 1006.1 |
| 20260831054004 | 72 | 245 | 3.0 | 8.0 | 0.00 | 0.00 | 0.00 | 94 | 1006.1 |
| 20260831053503 | 72 | 174 | 3.0 | 8.0 | 0.00 | 0.00 | 0.00 | 94 | 1006.1 |
| 20260831053003 | 72 | 252 | 3.0 | 7.0 | 0.00 | 0.00 | 0.00 | 94 | 1006.2 |
| 20260831052502 | 72 | 253 | 2.0 | 7.0 | 0.00 | 0.00 | 0.00 | 93 | 1006.2 |
| 20260831052002 | 72 | 238 | 1.0 | 7.0 | 0.00 | 0.00 | 0.00 | 93 | 1006.3 |
| 20260831051601 | 72 | 218 | 2.0 | 7.0 | 0.00 | 0.00 | 0.00 | 93 | 1006.5 |
| 20260831051159 | 73 | 295 | 2.0 | 6.0 | 0.00 | 0.00 | 0.00 | 93 | 1006.5 |
| 20260831050558 | 73 | 238 | 1.0 | 7.0 | 0.00 | 0.00 | 0.00 | 92 | 1006.5 |
| 20260831050508 | 73 | 255 | 1.0 | 7.0 | 0.00 | 0.00 | 0.00 | 92 | 1006.5 |
| 20260831050122 | 73 | 270 | 1.0 | 7.0 | 0.00 | 0.00 | 0.00 | 92 | 1006.6 |
| 20260831045557 | 73 | 240 | 1.0 | 9.0 | 0.00 | 0.00 | 0.00 | 92 | 1006.7 |
| 20260831045058 | 73 | 243 | 2.0 | 9.0 | 0.00 | 0.00 | 0.00 | 92 | 1006.8 |
| 20260831044604 | 73 | 210 | 3.0 | 6.0 | 0.00 | 0.00 | 0.00 | 92 | 1006.9 |
| 20260831044056 | 73 | 224 | 1.0 | 7.0 | 0.00 | 0.00 | 0.00 | 91 | 1007.1 |
| 20260831043556 | 73 | 176 | 2.0 | 7.0 | 0.00 | 0.00 | 0.00 | 91 | 1007.2 |
| 20260831043056 | 73 | 190 | 2.0 | 7.0 | 0.00 | 0.00 | 0.00 | 91 | 1007.2 |
| 20260831042555 | 74 | 298 | 1.0 | 6.0 | 0.00 | 0.00 | 0.00 | 91 | 1007.3 |
| 20260831032049 | 75 | 182 | 3.0 | 10.0 | 0.00 | 0.00 | 0.00 | 88 | 1007.0 |
| 20260831031549 | 75 | 165 | 3.0 | 9.0 | 0.00 | 0.00 | 0.00 | 88 | 1007.0 |
| 20260831025043 | 76 | 132 | 2.0 | 8.0 | 0.00 | 0.00 | 0.00 | 87 | 1006.8 |
| 20260831024538 | 76 | 214 | 3.0 | 9.0 | 0.00 | 0.00 | 0.00 | 86 | 1006.7 |
| 20260831024030 | 76 | 156 | 3.0 | 9.0 | 0.00 | 0.00 | 0.00 | 86 | 1006.6 |
| 20260831023530 | 76 | 250 | 1.0 | 8.0 | 0.00 | 0.00 | 0.00 | 86 | 1006.6 |
| 20260831023032 | 76 | 127 | 2.0 | 8.0 | 0.00 | 0.00 | 0.00 | 86 | 1006.6 |
| 20260831022529 | 76 | 231 | 1.0 | 5.0 | 0.00 | 0.00 | 0.00 | 85 | 1006.6 |
| 20260831022029 | 77 | 165 | 2.0 | 7.0 | 0.00 | 0.00 | 0.00 | 86 | 1006.7 |
| 20260831021538 | 77 | 180 | 2.0 | 7.0 | 0.00 | 0.00 | 0.00 | 86 | 1006.6 |
| 20260831021029 | 77 | 153 | 1.0 | 6.0 | 0.00 | 0.00 | 0.00 | 86 | 1006.8 |
| 20260831020533 | 77 | 228 | 2.0 | 6.0 | 0.00 | 0.00 | 0.00 | 86 | 1006.8 |
| 20260831020032 | 77 | 152 | 1.0 | 6.0 | 0.00 | 0.00 | 0.00 | 87 | 1006.7 |
| 20260831015532 | 77 | 183 | 1.0 | 6.0 | 0.00 | 0.00 | 0.00 | 87 | 1006.8 |
| 20260831015028 | 77 | 236 | 0.0 | 6.0 | 0.00 | 0.00 | 0.00 | 87 | 1006.7 |
| 20260831014528 | 77 | 143 | 1.0 | 6.0 | 0.00 | 0.00 | 0.00 | 87 | 1006.7 |
| 20260831014030 | 78 | 214 | 0.0 | 4.0 | 0.00 | 0.00 | 0.00 | 86 | 1006.7 |
| 20260831013528 | 78 | 166 | 0.0 | 4.0 | 0.00 | 0.00 | 0.00 | 86 | 1006.6 |
| 20260831013028 | 78 | 109 | 0.0 | 4.0 | 0.00 | 0.00 | 0.00 | 85 | 1006.6 |
| 20260831012528 | 78 | 194 | 0.0 | 3.0 | 0.00 | 0.00 | 0.00 | 85 | 1006.6 |
| 20260831012027 | 78 | 95 | 0.0 | 3.0 | 0.00 | 0.00 | 0.00 | 85 | 1006.5 |
| 20260831011542 | 79 | 90 | 0.0 | 3.0 | 0.00 | 0.00 | 0.00 | 84 | 1006.4 |
| 20260831011027 | 79 | 100 | 0.0 | 1.0 | 0.00 | 0.00 | 0.00 | 83 | 1006.4 |
| 20260831010527 | 79 | 82 | 0.0 | 3.0 | 0.00 | 0.00 | 0.00 | 83 | 1006.5 |
| 20260831010029 | 79 | 85 | 0.0 | 4.0 | 0.00 | 0.00 | 0.00 | 83 | 1006.4 |
| 20260831005527 | 79 | 72 | 0.0 | 4.0 | 0.00 | 0.00 | 0.00 | 82 | 1006.3 |
| 20260831005027 | 80 | 86 | 1.0 | 4.0 | 0.00 | 0.00 | 0.00 | 82 | 1006.3 |
| 20260831004526 | 80 | 103 | 1.0 | 5.0 | 0.00 | 0.00 | 0.00 | 82 | 1006.3 |
| 20260831004026 | 80 | 100 | 1.0 | 5.0 | 0.00 | 0.00 | 0.00 | 81 | 1006.4 |
| 20260831001020 | 81 | 98 | 2.0 | 5.0 | 0.00 | 0.00 | 0.00 | 78 | 1006.4 |
| 20260831000519 | 82 | 83 | 2.0 | 7.0 | 0.00 | 0.00 | 0.00 | 78 | 1006.4 |
| 20260831000019 | 82 | 94 | 2.0 | 7.0 | 0.00 | 0.00 | 0.00 | 77 | 1006.3 |
| 20260830235518 | 82 | 93 | 3.0 | 7.0 | 0.00 | 0.00 | 0.00 | 77 | 1006.3 |
| 20260830235018 | 82 | 99 | 1.0 | 6.0 | 0.00 | 0.00 | 0.00 | 77 | 1006.3 |
| 20260830234518 | 82 | 106 | 2.0 | 6.0 | 0.00 | 0.00 | 0.00 | 77 | 1006.3 |
| 20260830234021 | 82 | 93 | 2.0 | 8.0 | 0.00 | 0.00 | 0.00 | 76 | 1006.3 |
| 20260830233517 | 82 | 114 | 3.0 | 10.0 | 0.00 | 0.00 | 0.00 | 76 | 1006.2 |
| 20260830233022 | 82 | 93 | 3.0 | 7.0 | 0.00 | 0.00 | 0.00 | 76 | 1006.1 |
| 20260830232516 | 83 | 95 | 1.0 | 12.0 | 0.00 | 0.00 | 0.00 | 75 | 1006.2 |
| 20260830232015 | 83 | 250 | 3.0 | 12.0 | 0.00 | 0.00 | 0.00 | 75 | 1006.2 |
| 20260830231516 | 83 | 84 | 2.0 | 9.0 | 0.00 | 0.00 | 0.00 | 75 | 1006.2 |
| 20260830231018 | 83 | 87 | 4.0 | 9.0 | 0.00 | 0.00 | 0.00 | 74 | 1006.4 |
| 20260830230515 | 83 | 96 | 1.0 | 7.0 | 0.00 | 0.00 | 0.00 | 76 | 1006.5 |
| 20260830230015 | 83 | 77 | 0.0 | 7.0 | 0.00 | 0.00 | 0.00 | 75 | 1006.4 |
| 20260830225515 | 83 | 72 | 0.0 | 8.0 | 0.00 | 0.00 | 0.00 | 76 | 1006.3 |
| 20260830225014 | 83 | 96 | 2.0 | 8.0 | 0.00 | 0.00 | 0.00 | 75 | 1006.2 |
| 20260830224518 | 83 | 86 | 2.0 | 7.0 | 0.00 | 0.00 | 0.00 | 73 | 1006.3 |
| 20260830224013 | 83 | 71 | 1.0 | 7.0 | 0.00 | 0.00 | 0.00 | 74 | 1006.3 |
| 20260830223513 | 83 | 124 | 2.0 | 6.0 | 0.00 | 0.00 | 0.00 | 74 | 1006.3 |
| 20260830223012 | 83 | 119 | 1.0 | 8.0 | 0.00 | 0.00 | 0.00 | 75 | 1006.2 |
| 20260830222511 | 83 | 316 | 2.0 | 8.0 | 0.00 | 0.00 | 0.00 | 75 | 1006.2 |
| 20260830222009 | 83 | 103 | 1.0 | 6.0 | 0.00 | 0.00 | 0.00 | 76 | 1006.3 |
| 20260830221509 | 83 | 104 | 1.0 | 8.0 | 0.00 | 0.00 | 0.00 | 76 | 1006.3 |
| 20260830221009 | 83 | 122 | 3.0 | 8.0 | 0.00 | 0.00 | 0.00 | 76 | 1006.3 |
| 20260830220508 | 83 | 132 | 2.0 | 7.0 | 0.00 | 0.00 | 0.00 | 76 | 1006.3 |
| 20260830220007 | 82 | 357 | 1.0 | 9.0 | 0.00 | 0.00 | 0.00 | 77 | 1006.4 |
| 20260830215507 | 82 | 153 | 3.0 | 9.0 | 0.00 | 0.00 | 0.00 | 76 | 1006.5 |
| 20260830215004 | 82 | 75 | 1.0 | 9.0 | 0.00 | 0.00 | 0.00 | 78 | 1006.6 |
| 20260830214504 | 82 | 86 | 2.0 | 13.0 | 0.00 | 0.00 | 0.00 | 78 | 1006.6 |
| 20260830214003 | 82 | 115 | 4.0 | 13.0 | 0.00 | 0.00 | 0.00 | 77 | 1006.7 |
| 20260830213503 | 82 | 47 | 4.0 | 7.0 | 0.00 | 0.00 | 0.00 | 77 | 1006.7 |
| 20260830213005 | 82 | 106 | 1.0 | 8.0 | 0.00 | 0.00 | 0.00 | 79 | 1006.6 |
| 20260830212500 | 81 | 98 | 2.0 | 11.0 | 0.00 | 0.00 | 0.00 | 79 | 1006.6 |
| 20260830212101 | 81 | 89 | 6.0 | 11.0 | 0.00 | 0.00 | 0.00 | 78 | 1006.7 |
| 20260830211603 | 81 | 79 | 1.0 | 10.0 | 0.00 | 0.00 | 0.00 | 79 | 1006.8 |
| 20260830211057 | 81 | 106 | 4.0 | 10.0 | 0.00 | 0.00 | 0.00 | 79 | 1006.8 |
| 20260830210558 | 81 | 93 | 3.0 | 9.0 | 0.00 | 0.00 | 0.00 | 81 | 1006.9 |
| 20260830210056 | 80 | 99 | 4.0 | 12.0 | 0.00 | 0.00 | 0.00 | 79 | 1007.0 |
| 20260830205556 | 81 | 86 | 4.0 | 12.0 | 0.00 | 0.00 | 0.00 | 80 | 1007.2 |
| 20260830205055 | 80 | 122 | 6.0 | 14.0 | 0.00 | 0.00 | 0.00 | 79 | 1007.1 |
| 20260830204555 | 80 | 79 | 6.0 | 14.0 | 0.00 | 0.00 | 0.00 | 79 | 1007.1 |
| 20260830204055 | 81 | 93 | 3.0 | 11.0 | 0.00 | 0.00 | 0.00 | 79 | 1007.3 |
| 20260830203553 | 81 | 117 | 6.0 | 12.0 | 0.00 | 0.00 | 0.00 | 80 | 1007.2 |
| 20260830203052 | 80 | 95 | 4.0 | 10.0 | 0.00 | 0.00 | 0.00 | 79 | 1007.2 |
| 20260830202554 | 80 | 115 | 3.0 | 8.0 | 0.00 | 0.00 | 0.00 | 81 | 1007.2 |
| 20260830202048 | 79 | 136 | 2.0 | 12.0 | 0.00 | 0.00 | 0.00 | 82 | 1007.0 |
| 20260830201549 | 79 | 123 | 5.0 | 12.0 | 0.00 | 0.00 | 0.00 | 81 | 1007.1 |
| 20260830201047 | 79 | 174 | 2.0 | 12.0 | 0.00 | 0.00 | 0.00 | 84 | 1007.3 |
| 20260830200546 | 78 | 105 | 7.0 | 12.0 | 0.00 | 0.00 | 0.00 | 82 | 1007.2 |
| 20260830200046 | 78 | 70 | 6.0 | 9.0 | 0.00 | 0.00 | 0.00 | 82 | 1007.1 |
| 20260830195548 | 78 | 107 | 4.0 | 10.0 | 0.00 | 0.00 | 0.00 | 82 | 1007.0 |
| 20260830195046 | 78 | 103 | 6.0 | 12.0 | 0.00 | 0.00 | 0.00 | 84 | 1007.0 |
| 20260830194557 | 77 | 104 | 8.0 | 13.0 | 0.00 | 0.00 | 0.00 | 83 | 1007.2 |
| 20260830194044 | 77 | 58 | 7.0 | 13.0 | 0.00 | 0.00 | 0.00 | 83 | 1007.1 |
| 20260830193543 | 78 | 99 | 7.0 | 13.0 | 0.00 | 0.00 | 0.00 | 83 | 1007.2 |
| 20260830193054 | 78 | 115 | 7.0 | 14.0 | 0.00 | 0.00 | 0.00 | 84 | 1007.2 |
| 20260830192540 | 77 | 126 | 7.0 | 14.0 | 0.00 | 0.00 | 0.00 | 85 | 1007.3 |
| 20260830192043 | 77 | 94 | 9.0 | 14.0 | 0.00 | 0.00 | 0.00 | 84 | 1007.4 |
| 20260830191539 | 77 | 98 | 6.0 | 13.0 | 0.00 | 0.00 | 0.00 | 85 | 1007.5 |
| 20260830191038 | 77 | 96 | 6.0 | 12.0 | 0.00 | 0.00 | 0.00 | 84 | 1007.5 |
| 20260830190538 | 77 | 103 | 8.0 | 13.0 | 0.00 | 0.00 | 0.00 | 84 | 1007.7 |
| 20260830190037 | 77 | 117 | 6.0 | 13.0 | 0.00 | 0.00 | 0.00 | 85 | 1007.9 |
| 20260830185537 | 77 | 82 | 6.0 | 12.0 | 0.00 | 0.00 | 0.00 | 85 | 1007.9 |
| 20260830185037 | 77 | 94 | 5.0 | 10.0 | 0.00 | 0.00 | 0.00 | 85 | 1007.9 |
| 20260830184536 | 76 | 115 | 4.0 | 10.0 | 0.00 | 0.00 | 0.00 | 87 | 1008.0 |
| 20260830184034 | 76 | 86 | 6.0 | 13.0 | 0.00 | 0.00 | 0.00 | 86 | 1008.3 |
| 20260830183537 | 76 | 155 | 7.0 | 13.0 | 0.00 | 0.00 | 0.00 | 86 | 1008.4 |
| 20260830183034 | 76 | 112 | 4.0 | 9.0 | 0.00 | 0.00 | 0.00 | 88 | 1008.5 |
| 20260830182532 | 75 | 132 | 1.0 | 7.0 | 0.00 | 0.00 | 0.00 | 89 | 1008.7 |
| 20260830182030 | 74 | 90 | 0.0 | 7.0 | 0.00 | 0.00 | 0.00 | 91 | 1008.8 |
| 20260830181529 | 73 | 113 | 2.0 | 8.0 | 0.00 | 0.00 | 0.00 | 90 | 1008.8 |
| 20260830181032 | 73 | 92 | 2.0 | 8.0 | 0.00 | 0.00 | 0.00 | 90 | 1008.9 |
| 20260830180525 | 73 | 75 | 3.0 | 9.0 | 0.00 | 0.00 | 0.00 | 90 | 1009.0 |
| 20260830180025 | 73 | 110 | 4.0 | 10.0 | 0.00 | 0.00 | 0.00 | 90 | 1008.7 |
| 20260830175523 | 73 | 77 | 4.0 | 10.0 | 0.00 | 0.00 | 0.00 | 90 | 1008.7 |
| 20260830175022 | 73 | 132 | 4.0 | 12.0 | 0.00 | 0.00 | 0.00 | 90 | 1008.6 |
| 20260830174522 | 73 | 91 | 4.0 | 12.0 | 0.00 | 0.00 | 0.00 | 91 | 1008.6 |
| 20260830174018 | 72 | 86 | 5.0 | 9.0 | 0.00 | 0.00 | 0.00 | 91 | 1008.7 |
| 20260830173516 | 72 | 121 | 4.0 | 8.0 | 0.00 | 0.00 | 0.00 | 92 | 1008.6 |
| 20260830173015 | 72 | 113 | 1.0 | 7.0 | 0.00 | 0.00 | 0.00 | 93 | 1008.6 |
| 20260830172515 | 71 | 97 | 3.0 | 8.0 | 0.00 | 0.00 | 0.00 | 93 | 1008.7 |
| 20260830172018 | 71 | 89 | 4.0 | 8.0 | 0.00 | 0.00 | 0.00 | 93 | 1008.7 |
| 20260830171513 | 71 | 115 | 4.0 | 8.0 | 0.00 | 0.00 | 0.00 | 93 | 1008.7 |
| 20260830171012 | 71 | 117 | 3.0 | 7.0 | 0.00 | 0.00 | 0.00 | 93 | 1008.8 |
| 20260830170513 | 71 | 84 | 3.0 | 6.0 | 0.00 | 0.00 | 0.00 | 93 | 1008.9 |
| 20260830170015 | 71 | 111 | 4.0 | 8.0 | 0.00 | 0.00 | 0.00 | 93 | 1008.9 |
| 20260830165511 | 71 | 103 | 4.0 | 13.0 | 0.00 | 0.00 | 0.00 | 93 | 1008.9 |
| 20260830165014 | 70 | 110 | 5.0 | 13.0 | 0.00 | 0.00 | 0.00 | 93 | 1008.8 |
| 20260830164510 | 70 | 67 | 6.0 | 14.0 | 0.00 | 0.00 | 0.00 | 93 | 1008.8 |
| 20260830164010 | 70 | 111 | 4.0 | 10.0 | 0.00 | 0.00 | 0.00 | 93 | 1008.7 |
| 20260830163510 | 70 | 81 | 6.0 | 10.0 | 0.00 | 0.00 | 0.00 | 93 | 1008.7 |
| 20260830163009 | 70 | 89 | 6.0 | 10.0 | 0.00 | 0.00 | 0.00 | 93 | 1008.6 |
| 20260830162514 | 70 | 117 | 5.0 | 9.0 | 0.00 | 0.00 | 0.00 | 94 | 1008.5 |
| 20260830162012 | 70 | 65 | 6.0 | 9.0 | 0.00 | 0.00 | 0.00 | 93 | 1008.4 |
| 20260830161507 | 70 | 117 | 5.0 | 9.0 | 0.00 | 0.00 | 0.00 | 94 | 1008.4 |
| 20260830161007 | 70 | 90 | 7.0 | 10.0 | 0.00 | 0.00 | 0.00 | 94 | 1008.5 |
| 20260830160507 | 70 | 84 | 7.0 | 10.0 | 0.00 | 0.00 | 0.00 | 94 | 1008.5 |
| 20260830160006 | 70 | 140 | 6.0 | 10.0 | 0.00 | 0.00 | 0.00 | 94 | 1008.5 |
| 20260830155506 | 70 | 98 | 5.0 | 13.0 | 0.00 | 0.00 | 0.00 | 94 | 1008.5 |
| 20260830155005 | 70 | 69 | 6.0 | 13.0 | 0.00 | 0.00 | 0.00 | 95 | 1008.2 |
| 20260830154504 | 69 | 117 | 6.0 | 9.0 | 0.00 | 0.00 | 0.00 | 95 | 1008.3 |
| 20260830154003 | 69 | 85 | 4.0 | 9.0 | 0.00 | 0.00 | 0.00 | 96 | 1008.3 |
| 20260830153501 | 69 | 98 | 5.0 | 9.0 | 0.00 | 0.00 | 0.00 | 96 | 1008.5 |
| 20260830153001 | 69 | 90 | 5.0 | 9.0 | 0.00 | 0.00 | 0.00 | 96 | 1008.3 |
| 20260830152503 | 69 | 20 | 7.0 | 9.0 | 0.00 | 0.00 | 0.00 | 97 | 1008.4 |
| 20260830152100 | 68 | 101 | 5.0 | 11.0 | 0.00 | 0.00 | 0.00 | 97 | 1008.4 |
| 20260830151610 | 68 | 79 | 4.0 | 11.0 | 0.00 | 0.00 | 0.00 | 96 | 1008.4 |
| 20260830151059 | 68 | 76 | 4.0 | 8.0 | 0.00 | 0.00 | 0.00 | 97 | 1008.6 |
| 20260830150601 | 68 | 86 | 4.0 | 8.0 | 0.00 | 0.00 | 0.00 | 97 | 1008.6 |
| 20260830150104 | 68 | 147 | 4.0 | 10.0 | 0.00 | 0.00 | 0.00 | 97 | 1008.6 |
| 20260830145600 | 68 | 79 | 5.0 | 10.0 | 0.00 | 0.00 | 0.00 | 97 | 1008.5 |
| 20260830145058 | 68 | 58 | 4.0 | 8.0 | 0.00 | 0.00 | 0.00 | 98 | 1008.3 |
| 20260830144556 | 67 | 64 | 5.0 | 8.0 | 0.00 | 0.00 | 0.00 | 98 | 1008.3 |
| 20260830144055 | 67 | 61 | 5.0 | 8.0 | 0.00 | 0.00 | 0.00 | 98 | 1008.4 |
| 20260830143555 | 67 | 82 | 3.0 | 8.0 | 0.00 | 0.00 | 0.00 | 99 | 1008.7 |
| 20260830143058 | 67 | 110 | 4.0 | 9.0 | 0.00 | 0.00 | 0.00 | 99 | 1008.8 |
| 20260830142555 | 67 | 67 | 3.0 | 9.0 | 0.00 | 0.00 | 0.00 | 99 | 1008.7 |
| 20260830142058 | 66 | 81 | 5.0 | 8.0 | 0.00 | 0.00 | 0.00 | 99 | 1008.5 |
| 20260830141555 | 66 | 81 | 5.0 | 7.0 | 0.00 | 0.00 | 0.00 | 99 | 1008.6 |
| 20260830141108 | 66 | 118 | 4.0 | 8.0 | 0.00 | 0.00 | 0.00 | 99 | 1008.7 |
| 20260830140553 | 66 | 101 | 3.0 | 6.0 | 0.00 | 0.00 | 0.00 | 100 | 1008.9 |